Manitowoc, WI

8:16 PM CDT on October 16, 2017 (GMT -0500)
Manitowoc County

Weather History for KMTW - June, 2014

Change the Weather History Date:

Sunday, June 8, 2014

  Actual Average Record
Temperature  
Mean Temperature 62 °F -  
Max Temperature 69 °F 75 °F 91 °F (1976)
Min Temperature 53 °F 50 °F 40 °F (1949)
Degree Days  
Heating Degree Days 4    
Growing Degree Days 12 (Base 50)    
Moisture  
Dew Point 47 °F    
Average Humidity 65    
Maximum Humidity 94    
Minimum Humidity 36    
Precipitation  
Precipitation 0.00 in - - ()
Sea Level Pressure  
Sea Level Pressure 30.08 in    
Wind  
Wind Speed 9 mph (NE)    
Max Wind Speed 17 mph    
Max Gust Speed 23 mph    
Visibility 10 miles    
Events      
Averages and records for this station are not official NWS values.
T = Trace of Precipitation, MM = Missing Value Source: NWS Daily Summary

Daily Weather History Graph

Daily Weather History Graph

Search for Another Location

Airport or City:

Trip Planner

Search our weather history database for the weather conditions in past years. The results will help you decide how hot, cold, wet, or windy it might be!

Date:

Astronomy

Jun. 08, 2014 Rise Set
Actual Time 5:07 AM CDT 8:32 PM CDT
Civil Twilight 4:31 AM CDT 9:08 PM CDT
Nautical Twilight 3:44 AM CDT 9:55 PM CDT
Astronomical Twilight 2:45 AM CDT 10:55 PM CDT
Moon 3:41 PM CDT (6/8) 2:10 AM CDT (6/8)
Length of Visible Light 16h 36m
Length of Day
15h 24m
Waxing Gibbous, 77% of the Moon is Illuminated
Jun 8
Waxing Gibbous
Jun 12
Full
Jun 19
Last Quarter
Jun 27
New
Jul 5
First Quarter

Hourly Weather History & Observations

Time (CDT) Temp. Dew Point Humidity Pressure Visibility Wind Dir Wind Speed Gust Speed Precip Events Conditions
1:37 AM 57.2 °F 55.4 °F 94% 29.94 in 10.0 mi NNE 17.3 mph 23.0 mph N/A   Overcast
1:56 AM 57.0 °F 54.0 °F 89% 30.01 in 10.0 mi North 5.8 mph 16.1 mph N/A   Overcast
2:53 AM 55.4 °F 51.8 °F 88% 29.96 in 10.0 mi NE 8.1 mph - N/A   Overcast
2:56 AM 55.9 °F 52.0 °F 87% 30.02 in 10.0 mi NE 6.9 mph - N/A   Overcast
3:56 AM 55.0 °F 52.0 °F 89% 30.03 in 10.0 mi NE 6.9 mph - N/A   Overcast
4:39 AM 55.4 °F 51.8 °F 88% 29.99 in 10.0 mi NNE 6.9 mph - N/A   Overcast
4:56 AM 55.9 °F 51.1 °F 84% 30.05 in 10.0 mi NNE 8.1 mph - N/A   Overcast
5:54 AM 55.4 °F 51.8 °F 88% 30.00 in 10.0 mi NNE 8.1 mph - N/A   Overcast
5:56 AM 55.9 °F 51.1 °F 84% 30.06 in 10.0 mi NNE 6.9 mph - N/A   Overcast
6:56 AM 55.9 °F 51.1 °F 84% 30.07 in 10.0 mi NE 5.8 mph - 0.00 in   Overcast
7:56 AM 57.0 °F 50.0 °F 77% 30.08 in 10.0 mi NE 9.2 mph - N/A   Scattered Clouds
8:56 AM 62.1 °F 46.0 °F 56% 30.09 in 10.0 mi ENE 9.2 mph 18.4 mph N/A   Clear
9:56 AM 64.0 °F 41.0 °F 43% 30.10 in 10.0 mi East 15.0 mph 21.9 mph N/A   Clear
10:56 AM 64.9 °F 45.0 °F 48% 30.12 in 10.0 mi NE 9.2 mph 17.3 mph N/A   Clear
12:56 PM 66.0 °F 46.0 °F 48% 30.12 in 10.0 mi ENE 10.4 mph 21.9 mph N/A   Clear
1:56 PM 66.9 °F 45.0 °F 45% 30.12 in 10.0 mi ENE 10.4 mph 19.6 mph N/A   Clear
2:56 PM 68.0 °F 45.0 °F 43% 30.12 in 10.0 mi NE 10.4 mph 17.3 mph N/A   Clear
3:56 PM 68.0 °F 39.9 °F 36% 30.11 in 10.0 mi ENE 12.7 mph 17.3 mph N/A   Clear
4:56 PM 68.0 °F 39.9 °F 36% 30.11 in 10.0 mi East 8.1 mph - N/A   Clear
5:56 PM 66.9 °F 42.1 °F 40% 30.12 in 10.0 mi East 8.1 mph 16.1 mph N/A   Clear
6:56 PM 64.9 °F 42.1 °F 43% 30.12 in 10.0 mi East 6.9 mph - N/A   Clear
7:56 PM 63.0 °F 43.0 °F 48% 30.13 in 10.0 mi East 4.6 mph - N/A   Clear
8:56 PM 59.0 °F 44.1 °F 58% 30.13 in 10.0 mi Calm Calm - N/A   Clear
9:56 PM 57.0 °F 43.0 °F 59% 30.15 in 10.0 mi Calm Calm - N/A   Clear
10:56 PM 55.0 °F 44.1 °F 67% 30.14 in 10.0 mi NNE 3.5 mph - N/A   Clear
11:56 PM 53.1 °F 43.0 °F 69% 30.15 in 10.0 mi North 3.5 mph - N/A   Clear